Погода в Омолоне

Погода в Омолоне : погода сейчас, прогноз погоды и архив. Всё, что Вы хотите узнать о погоде в Омолоне!

Поиск расширенной информации на нашем сайте:

Другие новости

Новости СМИ2

Главная страница сайта

Новости сайта

02.10.2013

Напоминаем, что на нашем новом сайте вы можете получить высокодетализированные прогнозы погоды по пунктам России, СНГ и мира (включающие важные для авиации метеовеличины, такие как направление и скорость ветра, видимость, явления погоды, количество и форма облачности, нижняя и верхняя граница облачности), а также ознакомиться с разнообразными материалами по авиационной метеорологии и подборкой полезных ссылок на эту тему.

Сайт Метеоцентр.Азия посвящён разработке технологий оптимизации авиаметеорологического обслуживания, включая проектирование и перспективное создание нескольких автоматизированных авиаметеорологических систем:
- система выпуска высокодетальных прогностических карт явлений погоды для нижнего воздушного пространства по России и ближнему зарубежью;
- система верификации прогнозов TAF (выпускаемых синоптиками официальных АМСГ РФ и ближнего зарубежья) и AUTOTAF (выпускаемых сайтом Метеоцентр.Азия) - выявление ошибок, онлайн-сопоставление с фактической погодой METAR, автоматическое внесение коррективов в прогнозы при резком отклонении фактической погоды от прогноза, подсчёт оправдываемости прогнозов по элементам и в целом;
- система обработки, анализа и отображения авиаметеорологической информации для применения провайдерами метеорологической информации.

Рекомендуем: Лекция 8 утилизация отходов производства.

Погода в Омолоне - сегодня

Время (UTC), дата Ветер
(°,м/с) 
Видим.   Явления Облачность Т
(°С)
Тd
(°С)
f(%) Тe
(°С)
Pmin
(гПа)
dP
(гПа)
Po
(мм)
O2
(г/м3)
Тmin Tmax R s Состояние
почвы
15 26.03.17 тихо () {02}  50000 м    ясно 
-26.8 -29.3 79 -27  1019.4  -0.5  737  331           
18 26.03.17 тихо () {01}  50000 м    ясно 
-30.1 -33.2 74 -30  1019.7  -0.1  737  336           
21 26.03.17 тихо () {01}  50000 м    ясно 
-23.5 -27.5 70 -24  1018.8  0.1  737  327  -30.7      45  равномерный
сухой снег
100% 
00 27.03.17 120 (ЮВ) 1{02}  50000 м    3/0 верхняя 
[Ci fib]
-15.8 -20.9 65 -16  1017.4  -0.4  737  317           
03 27.03.17 090 (В) 1{03}  50000 м    9/0 верхняя 
[Ci fib]
-10.1 -17.4 55 -10  1015.2  -1.4  736  309           
06 27.03.17 100 (В) 2{03}  50000 м    10/0 верхняя 
[Ci fib]
-9.7 -16.8 56 -11  1014.6  -0.6  736  309           
09 27.03.17 тихо () {02}  50000 м    10/0 верхняя 
[Ci fib]
-18.2 -20.8 80 -18  1016.5  0.8  736  319    -8.9       
12 27.03.17 090 (В) 1{03}  50000 м    ясно 
-23.4 -25.6 82 -24  1017.9  0.6  737  326           
15 27.03.17 070 (В) 1{03}  50000 м    ясно 
-27.6 -30.6 76 -28  1018.6  0.1  737  332           
18 27.03.17 тихо () {01}  50000 м    ясно 
-30.2 -33.2 75 -30  1019.3  0.4  737  336           
21 27.03.17 110 (В) 1{01}  50000 м    5/0 верхняя 
[Ci fib]
-26.1 -29.2 75 -27  1019.6  0.8  738  330  -30.9      45  равномерный
сухой снег
100% 
00 28.03.17 110 (В) 1{04}  50000 м    3/0 верхняя 
[Ci fib]
-15.8 -20.9 65 -16  1017.5  -0.6  737  317           
03 28.03.17 100 (В) 2{04}  50000 м    3/0 верхняя 
[Ci fib]
-10.3 -16.6 60 -12  1015.7  -1  737  310           
06 28.03.17 110 (В) 2{04}  50000 м    ясно 
-8.9 -16.2 55 -11  1015.3  -0.3  736  308           
09 28.03.17 090 (В) 1{02}  50000 м    ясно 
-19.6 -22.2 80 -20  1017.6  0.8  737  321    -8.6       
12 28.03.17 140 (ЮВ) 2{03}  50000 м    ясно 
-21.6 -24.1 80 -25  1018.9  738  324           
15 28.03.17 070 (В) 1{03}  50000 м    ясно 
-27.8 -30.3 79 -28  1020.3  0.5  738  333           
18 28.03.17 тихо () {02}  50000 м    ясно 
-30.2 -33.2 75 -30  1021.5  0.9  739  337           
21 28.03.17 тихо () {02}  50000 м    ясно 
-22.3 -26.2 71 -22  1021.7  1.4  740  326  -31.1      45  равномерный
сухой снег
100% 
00 29.03.17 100 (В) 1{02}  50000 м    ясно 
-15.8 -21.8 60 -16  1021.3  0.3  740  318           
03 29.03.17 060 (СВ) 1{03}  50000 м    ясно 
-10.5 -18.9 50 -10  1020.6  0.1  740  312           
06 29.03.17 120 (ЮВ) 1{02}  50000 м    ясно 
-10.5 -17.8 55 -10  1020.8  0.2  740  312           
09 29.03.17 120 (ЮВ) 1{02}  50000 м    ясно 
-19 -21.6 80 -19  1022.8  0.8  741  322    -9.2       
12 29.03.17 тихо () {03}  50000 м    ясно 
-26.3 -29.4 75 -26  1024.3  0.5  741  332           
15 29.03.17 120 (ЮВ) 1{02}  50000 м    ясно 
-28.1 -30.4 81 -29  1024.6  741  335           
Время (UTC), дата Ветер
(°,м/с) 
Видим.   Явления Облачность Т
(°С)
Тd
(°С)
f(%) Тe
(°С)
Pmin
(гПа)
dP
(гПа)
Po
(мм)
O2
(г/м3)
Тmin Tmax R s Состояние
почвы

Для получения пояснительной информации подведите курсор к названию столбца.

ПОГОДА в Омолоне - архив

Всё, что Вы хотите узнать о погоде в Омолоне - удобно и подробно!

Выберите нужную дату (начиная с 1 января 2015* года) и нажмите кнопку "Найти".
Будут отображены архивные сводки погоды по пункту Омолон, начиная с указанной даты.


Отображать данные в формате CSV (для использования в таблицах Excel)


Внимание! Наш архив погоды предназначен исключительно для личного некоммерческого использования в познавательных целях. Если Вам необходимы официальные справки о состоянии погоды (для производственных, юридических, коммерческих и т.п. целей), обращайтесь в органы Росгидромета.

*Примечание: данная дата относится к архиву по метеостанциям СССР (Россия, СНГ, Балтия).
Архив по метеостанциям Зарубежной Европы и Азии (кроме Китая) хранится 10 дней, по другим регионам земного шара (Китай, Африка, Америка, Австралия, Океания) - 1 день.

Омолон - район местоположения метеостанции


Название, широта, долгота, высота метеостанции:
Омолон 65.2°ш. 160.5°д. 264 м над ур. моря [Российская Федерация]

Дополнительная информация

В oтличие oт бoльшинства пoгoдных сайтoв мы публикуем пoдрoбную метеoинфoрмацию в детальнoм прoфессиoнальнoм фoрмате.

Характеристики температуры и влажнoсти вoздуха измеряются на высoте 2 м в тени вдали oт зданий и деревьев.
Скoрoсть ветра измеряется на высoте 10 м (на урoвне рoста челoвека скoрoсть ветра ниже в 1.5-2 раза). Если метеoстанция нахoдится в гoрoде или в лесу, тo скoрoсть ветра занижена на 2-4 м/с пo сравнению с oткрытым местoм. Скoрoсть ветра над акватoриями крупных рек и oзёр, а также на вершинах хoлмoв на 2-5 м/с выше, чем в oбычных услoвиях.
Атмoсфернoе давление в разных тoчках местнoсти мoжет значительнo oтличаться oт давления на метеoстанции, в зависимoсти oт услoвий рельефа (при пoдъёме на 10 м давление пoнижается примернo на 1 мм рт.ст.).